Lid_Strength_Index
2 5 8 6 10 13 15 13 13 13 14 14 13 12 13 16 13 12 14 12 10 10 8 6 2 2 1 1 1 1 0 -0 -0 -1 -1 -2 -2 -2 -2 -2 -1 -1 -2 -1 -1 -2 -1 -1 -1
4 6 6 8 13 16 15 14 14 13 13 13 15 15 16 16 15 16 15 12 11 9 8 6 4 3 2 2 2 2 1 1 0 0 -0 -1 -1 -1 -2 -1 -2 -2 -2 -2 -2 -2 -2 -1 -1
8 7 8 10 13 15 14 14 14 14 13 13 15 16 16 17 15 14 15 12 11 11 9 7 5 4 3 3 3 2 2 2 2 1 1 1 0 0 -0 -0 -0 -1 -1 -2 -2 -2 -1 -1 -1
10 7 8 12 14 14 13 14 14 14 14 13 15 17 16 15 15 13 13 13 13 12 11 8 5 5 4 4 3 3 3 3 3 2 2 1 2 2 2 1 1 1 0 -0 -0 -1 0 -0 -1
8 9 12 14 13 14 14 13 13 14 14 15 14 17 17 15 13 13 13 13 14 13 12 10 7 6 5 5 4 4 4 3 3 3 3 3 3 3 3 2 2 2 1 1 1 1 -0 -0 -0
10 10 13 16 14 14 14 13 13 14 14 15 16 17 17 14 14 14 13 13 13 13 12 12 9 7 6 6 6 6 5 5 4 4 4 4 4 4 4 3 3 2 2 2 2 2 1 1 1
10 12 14 14 13 14 13 14 14 14 15 16 15 17 17 16 14 13 14 14 14 13 13 12 12 10 8 7 7 7 7 6 6 6 6 6 6 6 6 5 4 3 3 3 3 3 3 3 2
10 10 14 13 14 14 14 15 15 15 15 15 15 16 17 16 14 14 14 14 14 14 13 14 13 12 12 12 9 9 9 9 9 8 9 9 10 9 8 8 6 6 5 4 4 4 5 4 4
9 11 14 13 13 13 15 15 16 15 15 16 16 16 16 14 14 15 15 15 14 14 14 13 13 12 12 13 13 12 12 12 12 12 11 12 13 13 13 10 9 8 7 6 6 6 6 7 6
10 12 12 12 14 15 14 14 15 15 16 17 17 16 15 14 15 15 16 16 16 15 14 13 13 13 13 13 14 15 15 15 15 15 14 14 15 14 14 13 11 11 10 9 9 8 9 10 11
13 12 13 14 13 14 14 15 15 15 16 15 16 17 16 15 15 16 16 16 15 14 13 14 13 14 13 14 14 15 16 16 16 16 15 15 15 15 15 15 15 15 13 14 14 14 13 13 11
13 15 14 14 14 14 14 13 15 15 16 15 15 16 16 16 16 16 16 16 15 15 15 15 15 15 15 15 16 16 16 16 16 16 16 16 16 16 16 16 16 16 15 15 15 14 14 13 11
15 15 15 15 14 16 14 15 16 17 17 17 16 15 16 16 16 16 15 15 15 16 15 15 15 16 16 16 16 16 16 17 17 16 16 16 16 17 16 17 16 16 16 16 15 15 14 13 13
15 15 16 15 15 16 15 16 15 17 16 16 16 16 17 16 16 15 15 15 15 16 16 16 15 16 15 15 15 16 16 16 16 16 15 15 16 16 16 16 16 16 16 16 15 15 15 14 13
15 17 17 17 17 17 16 17 16 17 16 16 15 15 15 15 14 15 14 14 14 15 14 15 15 14 15 15 15 15 15 15 15 15 14 14 15 15 16 16 16 16 15 15 15 14 13 13 12
16 17 19 18 17 17 17 19 17 17 17 17 17 17 16 15 15 15 14 14 15 15 15 15 13 15 15 16 15 15 15 15 16 15 15 14 14 14 15 15 15 15 14 14 14 14 13 12 12
19 20 19 18 18 18 18 20 17 17 16 17 17 17 16 16 15 16 15 15 15 15 15 15 15 15 15 15 15 15 15 15 15 15 15 15 14 14 15 16 15 15 15 15 14 14 14 13 12
20 20 19 19 19 19 20 19 18 16 16 16 17 17 17 16 16 16 15 15 15 16 16 15 15 15 15 15 16 16 15 15 15 15 14 14 14 14 15 15 15 15 15 16 15 15 14 14 13
19 20 20 20 20 20 19 20 19 18 17 17 17 17 17 16 16 16 15 16 16 16 16 15 15 15 16 16 17 17 17 16 16 15 14 14 14 14 14 15 15 15 15 16 15 15 15 14 14
19 20 21 20 19 20 21 20 19 19 19 17 16 17 17 17 17 16 16 17 17 17 16 16 16 16 15 15 16 17 17 17 16 15 14 13 13 14 13 14 15 15 15 15 15 15 15 14 14
20 19 20 20 20 20 21 20 19 19 18 17 16 16 16 16 17 17 17 18 18 17 17 16 16 16 15 15 16 16 16 17 16 15 15 14 13 13 14 14 14 14 14 15 15 15 15 15 14
19 19 19 19 20 21 21 22 21 19 19 17 16 16 16 16 16 17 17 18 18 18 17 16 16 15 15 15 16 16 17 17 16 15 15 14 13 13 14 14 14 14 14 15 14 13 14 14 15
19 18 19 19 20 22 23 23 21 20 19 18 17 16 16 16 16 16 16 15 17 17 18 17 16 16 15 15 15 16 16 16 15 15 14 14 14 13 13 14 14 14 14 14 14 14 14 14 14
18 18 18 19 20 25 23 22 21 20 18 18 17 16 16 16 16 16 16 16 16 17 17 17 16 16 15 15 15 15 16 15 15 15 15 15 15 14 14 13 14 14 14 14 14 14 14 14 14
18 19 23 24 27 24 23 23 20 18 18 17 16 17 16 16 17 17 17 16 16 17 17 16 16 16 15 15 15 15 15 15 15 15 14 15 15 15 15 14 14 14 14 13 14 14 14 14 14
19 19 22 26 25 23 21 23 19 18 18 17 17 16 16 16 16 17 16 16 15 16 16 16 16 16 16 15 15 15 15 15 15 15 15 15 15 15 14 14 14 14 14 14 14 14 14 14 14
20 21 19 25 27 26 22 20 17 17 17 18 17 17 17 17 16 16 16 16 16 16 16 16 16 16 16 16 15 15 15 15 15 15 15 14 14 14 14 14 14 14 14 14 14 14 15 15 14
20 19 21 23 27 27 23 24 20 18 18 17 18 17 17 17 16 15 16 16 16 15 15 16 15 15 15 15 16 15 15 15 15 15 15 14 14 13 14 14 14 14 14 14 14 14 14 14 14
22 22 22 21 23 25 26 22 19 17 16 16 17 17 17 16 16 16 15 15 16 16 16 16 16 16 15 15 15 15 15 14 14 14 14 14 14 14 14 14 14 13 14 14 14 14 14 15 14
22 21 20 22 24 25 24 23 18 17 16 16 16 16 17 16 16 16 16 15 16 16 16 15 15 15 15 14 15 15 14 14 14 14 14 14 14 13 13 13 14 14 14 14 14 15 14 15 15